TimeEDT,TemperatureF,Dew PointF,Humidity,Sea Level PressureIn,VisibilityMPH,Wind Direction,Wind SpeedMPH,Gust SpeedMPH,PrecipitationIn,Events,Conditions,WindDirDegrees,DateUTC
12:51 AM,60.1,50.0,69,29.95,10.0,South,8.1,-,N/A,,Partly Cloudy,190,2012-10-06 04:51:00
1:51 AM,61.0,50.0,67,29.93,10.0,SSW,6.9,-,N/A,,Partly Cloudy,200,2012-10-06 05:51:00
2:51 AM,60.1,51.1,72,29.92,10.0,SSW,6.9,-,N/A,,Clear,210,2012-10-06 06:51:00
3:51 AM,60.1,51.1,72,29.91,10.0,SW,11.5,-,N/A,,Scattered Clouds,230,2012-10-06 07:51:00
4:51 AM,60.1,52.0,75,29.91,10.0,SW,10.4,-,N/A,,Mostly Cloudy,230,2012-10-06 08:51:00
5:51 AM,61.0,52.0,72,29.90,10.0,SW,9.2,-,N/A,,Overcast,230,2012-10-06 09:51:00
6:51 AM,60.1,53.1,78,29.92,10.0,West,5.8,-,N/A,,Overcast,270,2012-10-06 10:51:00
7:51 AM,59.0,53.6,82,29.99,10.0,WSW,6.9,-,N/A,,Overcast,240,2012-10-06 11:51:00
8:07 AM,59.0,53.6,82,30.00,10.0,WSW,5.8,-,N/A,,Overcast,250,2012-10-06 12:07:00
8:41 AM,57.2,55.4,94,30.00,10.0,WNW,6.9,-,0.01,Rain,Light Rain,290,2012-10-06 12:41:00
8:51 AM,57.9,55.0,90,29.96,10.0,WNW,5.8,-,0.02,Rain,Light Rain,290,2012-10-06 12:51:00
9:10 AM,53.6,51.8,94,30.01,10.0,NNW,12.7,-,0.00,Rain,Light Rain,330,2012-10-06 13:10:00
9:51 AM,51.1,50.0,96,30.01,10.0,NW,11.5,-,0.00,,Overcast,320,2012-10-06 13:51:00
10:51 AM,48.0,46.9,96,30.04,10.0,NNW,11.5,-,0.00,Rain,Light Rain,330,2012-10-06 14:51:00
11:30 AM,46.4,44.6,93,30.07,10.0,NNW,11.5,-,0.00,,Overcast,340,2012-10-06 15:30:00
11:51 AM,46.9,45.0,93,30.06,10.0,NNW,10.4,-,0.00,Rain,Light Rain,340,2012-10-06 15:51:00
12:51 PM,46.9,45.0,93,30.07,10.0,NW,8.1,-,0.00,,Overcast,320,2012-10-06 16:51:00
1:23 PM,46.4,44.6,93,30.08,10.0,NNW,11.5,-,N/A,,Overcast,330,2012-10-06 17:23:00
1:47 PM,48.2,44.6,87,30.08,10.0,NW,12.7,-,N/A,,Overcast,320,2012-10-06 17:47:00
1:51 PM,48.0,45.0,89,30.05,10.0,NW,10.4,-,N/A,,Overcast,310,2012-10-06 17:51:00
2:21 PM,50.0,42.8,76,30.07,10.0,WNW,10.4,17.3,N/A,,Overcast,290,2012-10-06 18:21:00
2:36 PM,51.8,42.8,71,30.07,10.0,WNW,11.5,-,N/A,,Overcast,300,2012-10-06 18:36:00
2:51 PM,51.1,42.1,71,30.04,10.0,NW,10.4,-,N/A,,Mostly Cloudy,310,2012-10-06 18:51:00
3:48 PM,48.2,41.0,76,30.06,10.0,North,9.2,-,N/A,,Overcast,350,2012-10-06 19:48:00
3:51 PM,48.2,41.0,76,30.06,10.0,North,8.1,-,N/A,,Overcast,10,2012-10-06 19:51:00
3:58 PM,50.0,41.0,71,30.06,10.0,North,8.1,-,N/A,,Overcast,350,2012-10-06 19:58:00
4:51 PM,48.9,39.9,71,30.02,10.0,NNW,4.6,-,N/A,,Mostly Cloudy,340,2012-10-06 20:51:00
5:42 PM,48.2,39.2,71,30.05,10.0,NNW,3.5,-,N/A,,Scattered Clouds,340,2012-10-06 21:42:00
5:51 PM,48.2,39.2,71,30.06,10.0,NNW,4.6,-,N/A,,Partly Cloudy,330,2012-10-06 21:51:00
6:51 PM,46.4,39.2,76,30.07,10.0,Calm,Calm,-,N/A,,Clear,0,2012-10-06 22:51:00
7:51 PM,44.1,39.0,82,30.09,10.0,Calm,Calm,-,N/A,,Partly Cloudy,0,2012-10-06 23:51:00
8:51 PM,42.1,39.0,89,30.11,10.0,South,3.5,-,N/A,,Clear,180,2012-10-07 00:51:00
9:51 PM,42.1,39.0,89,30.13,10.0,Calm,Calm,-,N/A,,Clear,0,2012-10-07 01:51:00
10:51 PM,39.9,37.9,93,30.13,10.0,Calm,Calm,-,N/A,,Clear,0,2012-10-07 02:51:00
11:51 PM,41.0,39.0,93,30.11,10.0,Calm,Calm,-,N/A,,Mostly Cloudy,0,2012-10-07 03:51:00